Tracking 30102 objects as of 13-Dec-2024
HD Live streaming from Space Station
objects crossing your sky now

BSAT-2C

Track BSAT-2C now!
BSAT-2C is classified as:


NORAD ID: 27830
Int'l Code: 2003-028A
Perigee: 36,066.4 km
Apogee: 36,127.9 km
Inclination: 8.9 °
Period: 1,451.6 minutes
Semi major axis: 42468 km
RCS: 12.6191 m2 (large)
Launch date: June 11, 2003
Source: Japan (JPN)
Launch site: FRENCH GUIANA (FRGUI)

Backup to BSAT-2A; direct digital broadcasts to homes in Japan and neighboring countries through its Ku-band transponders.
Your satellite tracking list
Your tracking list is empty




NASA's NSSDC Master Catalog

Two Line Element Set (TLE):
1 27830U 03028A   24347.22068630 -.00000082  00000-0  00000-0 0  9991
2 27830   8.9385  57.1658 0007241 236.4691 145.6818  0.99199063 41185
Source of the keplerian elements: AFSPC